Regional Weather Roundup
Issued by NWS

Home | Current Version | Previous Version | Graphics & Text | Print | Product List | Glossary Off
Versions: 1 2 3 4 5 6 7 8 9 10 11 12 13 14 15 16 17 18 19 20 21 22 23 24 25 26 27 28 29 30 31 32 33 34 35 36 37 38 39 40 41 42 43 44 45 46 47 48 49 50

428
ASUS45 KBOU 280807
RWRCO

WEATHER ROUNDUP FOR COLORADO
NATIONAL WEATHER SERVICE DENVER/BOULDER CO
200 AM MDT THU JUL 28 2016

NOTE: "FAIR" INDICATES FEW OR NO CLOUDS BELOW 12000 FEET WITH NO
SIGNIFICANT WEATHER AND/OR OBSTRUCTIONS TO VISIBILITY.

COZ001>005-013-030-031-280900-
...NORTHWEST COLORADO...

CITY           SKY/WX    TMP DP  RH WIND       PRES   REMARKS
CRAIG          FAIR      46  33  60 CALM      30.24R
HAYDEN         FAIR      57  25  28 E9        30.25S
MEEKER         FAIR      56  35  45 E8        30.26S
MOUNT WERNER   NOT AVBL
STEAMBOAT SPGS FAIR      51  32  48 CALM      30.28F
WALDEN         FAIR      43  28  56 SE7       30.38S
$$

COZ006>008-011-280900-
...WEST CENTRAL VALLEYS...

CITY           SKY/WX    TMP DP  RH WIND       PRES   REMARKS
GRAND JUNCTION FAIR      72  33  24 SE10      30.09S
MONTROSE       FAIR      68  36  30 SE9       30.20S
EAGLE          FAIR      57  28  33 CALM      30.30R
RIFLE          FAIR      62  35  36 E3        30.18S
DELTA          NOT AVBL
NUCLA          NOT AVBL
$$

COZ017>023-064>068-280900-
...SOUTHWEST COLORADO...

CITY           SKY/WX    TMP DP  RH WIND       PRES   REMARKS
DURANGO        FAIR      65  32  29 N9        30.27R
CORTEZ         FAIR      60  38  43 NE8       30.19S
PAGOSA SPRINGS FAIR      59  33  38 CALM      30.38R
TELLURIDE      FAIR      58  32  38 E6        30.51S
WOLF CREEK PAS FAIR      52  30  43 CALM      30.75R
$$

COZ009-010-012-014-032>034-037-058>063-280900-
...CENTRAL COLORADO...

CITY           SKY/WX    TMP DP  RH WIND       PRES   REMARKS
ASPEN          FAIR      56  34  43 SW12      30.35F
BUENA VISTA    FAIR      54  29  39 W5        30.41S
COPPER MTN     FAIR      59   9  13 W7        30.71F
BERTHOUD PASS  FAIR      46  34  61 W6        30.74F
COTTONWOOD PAS FAIR      64  21  19 SW6       30.55F
GUNNISON       FAIR      52  37  58 CALM      30.41S
KREMMLING      FAIR      46  34  61 CALM      30.36S
LEADVILLE      FAIR      46  22  38 S5        30.54S
MONARCH PASS   FAIR      54  32  43 MISG      30.82F
SALIDA         FAIR      61  41  47 W9        30.44F
SUNLIGHT       NOT AVBL
WILKERSON PASS FAIR      54  37  54 SW6       30.68F
$$

COZ069>075-280900-
...SAN LUIS VALLEY/SANGRE DE CRISTO MOUNTAINS...

CITY           SKY/WX    TMP DP  RH WIND       PRES   REMARKS
ALAMOSA        FAIR      59  43  55 SW3       30.35S
LA VETA PASS   FAIR      55  41  58 S5        30.57F
SAGUACHE       FAIR      55  34  44 NW12      30.39F
$$

COZ035-036-038>040-280900-
...NORTHERN COLORADO FRONT RANGE...

CITY           SKY/WX    TMP DP  RH WIND       PRES   REMARKS
DENVER INTL AP FAIR      67  54  63 S12       30.19F
DMNS CITY PARK   N/A     67  57  72 SW1       30.19S
AURORA         PTCLDY    68  57  68 S8        30.22S
FRONT RANGE AP NOT AVBL
ERIE MUNI ARPT FAIR      64  58  81 N6        30.18F
BOULDER MUN AP FAIR      68  55  64 NW7       30.20F
CENTENNIAL     MOCLDY    68  55  63 S5        30.23F
BROOMFIELD     FAIR      68  55  64 NW8       30.22S
LONGMONT       NOT AVBL
$$

COZ041-046-047-076>085-087-088-280900-
...PIKES PEAK/PALMER DIVIDE AND SOUTHERN FOOTHILLS...

CITY           SKY/WX    TMP DP  RH WIND       PRES   REMARKS
COLO. SPRINGS  FAIR      66  54  65 NE10      30.28S
A. F. ACADEMY  FAIR      61  53  75 VRB5      30.29F
SCHRIEVER AFB  NOT AVBL
ELLICOTT       FAIR     N/A N/A N/A SE8       30.25S
FALCON         FAIR      60  54  80 N5        30.33F
FORT CARSON    FAIR      63  56  78 N5        30.24S
LIMON          FAIR      60  56  86 S5        30.22F
MONUMENT HILL  FAIR      55  52  88 SW6       30.34F
TRINIDAD       NOT AVBL
$$

COZ042>045-048>051-090-091-280900-
...NORTHEAST COLORADO...

CITY           SKY/WX    TMP DP  RH WIND       PRES   REMARKS
GREELEY ARPT   FAIR      63  57  82 E9        30.17F
AKRON          FAIR      64  60  87 E9        30.18F
BURLINGTON     FAIR      62  58  86 W7        30.16F
WRAY           MOCLDY    68  63  83 N10       30.18S
STERLING       NOT AVBL
HOLYOKE        NOT AVBL
FORT MORGAN    NOT AVBL
$$

COZ086-089-092>099-280900-
...SOUTHEAST COLORADO...

CITY           SKY/WX    TMP DP  RH WIND       PRES   REMARKS
PUEBLO         FAIR      72  57  59 NE8       30.14R
LA JUNTA       FAIR      70  59  68 E9        30.13S
LAMAR          FAIR      66  63  90 E5        30.11F
SPRINGFIELD      N/A     63  58  83 W9        30.15F
$$




USA.gov is the U.S. government's official web portal to all federal, state and local government web resources and services.